WZZ65 EPKK-EDDS

Flight info

Callsign WZZ65
Flight time N/A
Altitude 34000
Route BABKO L856 VADEX DCT ESETO DCT TABEM DCT BARIX DCT INGAP DCT DODIL T127 TEKSI
Aircraft A320/M-SDE3FGHIRWY/LB1

Departure

Time 2026-05-05 11:52
Airport Kraków John Paul II International Airport (EPKK)

Arrival

Time N/A
Airport Stuttgart Airport (EDDS)
Time Latitude Longitude Altitude Speed Heading
2026-05-05 11:21 50.07451 19.80482 800 ft 0 kts 107°
2026-05-05 11:42 50.07451 19.80481 827 ft 1 kts 107°
2026-05-05 11:42 50.07458 19.80447 800 ft 4 kts 107°
2026-05-05 11:43 50.07464 19.80415 800 ft 4 kts 102°
2026-05-05 11:43 50.07462 19.80379 800 ft 4 kts 53°
2026-05-05 11:43 50.07449 19.80353 800 ft 4 kts 58°
2026-05-05 11:43 50.07442 19.80329 800 ft 0 kts 77°
2026-05-05 11:46 50.07445 19.80340 800 ft 1 kts 64°
2026-05-05 11:46 50.07457 19.80362 800 ft 4 kts 43°
2026-05-05 11:46 50.07486 19.80385 800 ft 6 kts 19°
2026-05-05 11:47 50.07531 19.80407 800 ft 8 kts 17°
2026-05-05 11:47 50.07590 19.80422 800 ft 10 kts 353°
2026-05-05 11:47 50.07662 19.80398 800 ft 11 kts 347°
2026-05-05 11:47 50.07744 19.80370 800 ft 13 kts 347°
2026-05-05 11:48 50.07842 19.80336 800 ft 0 kts 348°
2026-05-05 11:50 50.07848 19.80334 800 ft 2 kts 348°
2026-05-05 11:50 50.07872 19.80327 800 ft 5 kts 348°
2026-05-05 11:50 50.07935 19.80306 800 ft 11 kts 348°
2026-05-05 11:51 50.08007 19.80282 799 ft 7 kts 348°
2026-05-05 11:51 50.08018 19.80244 800 ft 4 kts 263°
2026-05-05 11:51 50.08011 19.80191 800 ft 6 kts 257°
2026-05-05 11:51 50.07960 19.79837 800 ft 69 kts 257°
2026-05-05 11:52 50.07813 19.78787 802 ft 126 kts 258°
2026-05-05 11:52 50.07590 19.77216 884 ft 163 kts 254°
2026-05-05 11:52 50.07367 19.75511 1554 ft 160 kts 250°
2026-05-05 11:52 50.07135 19.73810 2117 ft 166 kts 252°
2026-05-05 11:53 50.06874 19.71962 2483 ft 183 kts 253°
2026-05-05 11:53 50.06576 19.69919 2728 ft 206 kts 252°
2026-05-05 11:53 50.06243 19.67613 3210 ft 227 kts 253°
2026-05-05 11:53 50.05703 19.65302 3978 ft 229 kts 229°
2026-05-05 11:54 50.04398 19.63923 4715 ft 239 kts 194°
2026-05-05 11:54 50.02698 19.63907 5456 ft 252 kts 173°
2026-05-05 11:54 50.00978 19.64548 6334 ft 257 kts 167°
2026-05-05 11:54 49.99252 19.65364 7141 ft 262 kts 167°
2026-05-05 11:55 49.97492 19.66191 7928 ft 267 kts 168°
2026-05-05 11:55 49.95686 19.66975 8750 ft 272 kts 169°
2026-05-05 11:55 49.93837 19.67708 9539 ft 276 kts 170°
2026-05-05 11:55 49.91950 19.68403 10206 ft 285 kts 171°
2026-05-05 11:56 49.89927 19.69012 10424 ft 306 kts 178°
2026-05-05 11:56 49.87769 19.68887 10845 ft 314 kts 193°
2026-05-05 11:56 49.85680 19.67913 11528 ft 315 kts 206°
2026-05-05 11:56 49.83744 19.66315 12286 ft 315 kts 210°
2026-05-05 11:57 49.81807 19.64644 12936 ft 321 kts 210°
2026-05-05 11:57 49.79850 19.62955 13676 ft 323 kts 210°
2026-05-05 11:57 49.77878 19.61251 14303 ft 325 kts 210°
2026-05-05 11:57 49.75896 19.59540 14995 ft 326 kts 210°
2026-05-05 11:58 49.73898 19.57823 15544 ft 332 kts 209°
2026-05-05 11:58 49.71871 19.56092 16107 ft 336 kts 209°
2026-05-05 11:58 49.69808 19.54332 16631 ft 340 kts 209°
2026-05-05 11:58 49.67735 19.52565 17303 ft 341 kts 209°
2026-05-05 11:59 49.65654 19.50785 17957 ft 342 kts 209°
2026-05-05 11:59 49.63564 19.48995 18489 ft 346 kts 209°
2026-05-05 11:59 49.61503 19.47032 18964 ft 350 kts 217°
2026-05-05 11:59 49.59669 19.44521 19357 ft 357 kts 226°
2026-05-05 12:00 49.57968 19.41734 19946 ft 358 kts 226°
2026-05-05 12:00 49.56264 19.38946 20604 ft 356 kts 226°
2026-05-05 12:00 49.54555 19.36153 21018 ft 362 kts 226°
2026-05-05 12:00 49.52818 19.33319 21380 ft 367 kts 227°
2026-05-05 12:01 49.51062 19.30455 21902 ft 368 kts 227°
2026-05-05 12:01 49.49295 19.27570 22389 ft 370 kts 227°
2026-05-05 12:01 49.47528 19.24692 22932 ft 372 kts 227°
2026-05-05 12:01 49.45742 19.21785 23320 ft 378 kts 227°
2026-05-05 12:02 49.43926 19.18830 23693 ft 381 kts 227°